KJ5EHN Weather Reports


Display with metric or nautical units.
time (UTC)temp
F
wind
direction
speed
MPH
gust
MPH
rain 1hr
in
rain 24hr
in
rain mn
in
humidity
%
barometer
mb
20260906222501 100 158 2.0 3.0 0.00 0.00 0.00 43 1011.2
20260906221959 101 147 1.0 3.0 0.00 0.00 0.00 43 1011.0
20260906221458 100 37 0.0 2.0 0.00 0.00 0.00 43 1011.1
20260906220954 99 156 2.0 4.0 0.00 0.00 0.00 44 1011.1
20260906220449 100 100 2.0 3.0 0.00 0.00 0.00 44 1011.2
20260906215948 104 78 2.0 4.0 0.00 0.00 0.00 41 1011.2
20260906215443 102 126 0.0 3.0 0.00 0.00 0.00 42 1011.2
20260906214941 101 105 2.0 6.0 0.00 0.00 0.00 42 1011.2
20260906214440 100 41 2.0 6.0 0.00 0.00 0.00 43 1010.9
20260906213939 99 28 1.0 2.0 0.00 0.00 0.00 44 1011.1
20260906213434 99 41 1.0 4.0 0.00 0.00 0.00 43 1011.3
20260906212932 101 225 5.0 7.0 0.00 0.00 0.00 42 1011.3
20260906212427 103 352 1.0 4.0 0.00 0.00 0.00 41 1011.4
20260906211928 101 9 0.0 3.0 0.00 0.00 0.00 41 1011.5
20260906211428 100 42 0.0 1.0 0.00 0.00 0.00 43 1011.5
20260906210923 101 264 2.0 2.0 0.00 0.00 0.00 42 1011.6
20260906210419 101 54 2.0 4.0 0.00 0.00 0.00 41 1011.7
20260906205913 101 12 2.0 3.0 0.00 0.00 0.00 43 1011.9
20260906205409 102 85 2.0 4.0 0.00 0.00 0.00 42 1012.0
20260906204904 103 83 1.0 4.0 0.00 0.00 0.00 41 1012.0
20260906204403 100 354 2.0 9.0 0.00 0.00 0.00 43 1012.1
20260906203903 100 186 1.0 3.0 0.00 0.00 0.00 44 1012.0
20260906203358 99 354 1.0 3.0 0.00 0.00 0.00 43 1012.5
20260906202856 99 72 1.0 4.0 0.00 0.00 0.00 43 1012.2
20260906202355 101 30 0.0 3.0 0.00 0.00 0.00 42 1012.2
20260906201855 101 32 1.0 7.0 0.00 0.00 0.00 42 1012.3
20260906201349 101 250 2.0 3.0 0.00 0.00 0.00 42 1012.3
20260906200846 102 144 1.0 3.0 0.00 0.00 0.00 40 1012.4
20260906200342 101 42 0.0 3.0 0.00 0.00 0.00 44 1012.4
20260906195842 100 63 2.0 6.0 0.00 0.00 0.00 43 1012.7
20260906195338 100 101 3.0 6.0 0.00 0.00 0.00 42 1012.6
20260906194834 99 38 0.0 2.0 0.00 0.00 0.00 45 1012.7
20260906194330 99 173 2.0 3.0 0.00 0.00 0.00 43 1012.6
20260906193824 100 343 0.0 4.0 0.00 0.00 0.00 43 1012.8
20260906193320 100 91 2.0 4.0 0.00 0.00 0.00 43 1012.8
20260906192815 101 5 1.0 6.0 0.00 0.00 0.00 43 1012.8
20260906192310 99 45 1.0 2.0 0.00 0.00 0.00 45 1012.9
20260906191809 100 300 1.0 8.0 0.00 0.00 0.00 43 1013.2
20260906191303 102 210 2.0 4.0 0.00 0.00 0.00 42 1013.0
20260906190758 100 42 2.0 3.0 0.00 0.00 0.00 43 1013.2
20260906190257 100 135 2.0 3.0 0.00 0.00 0.00 43 1013.1
20260906185757 99 222 0.0 2.0 0.00 0.00 0.00 45 1013.2
20260906185256 99 106 4.0 7.0 0.00 0.00 0.00 45 1013.3
20260906184751 99 60 1.0 3.0 0.00 0.00 0.00 44 1013.2
20260906184246 99 7 2.0 3.0 0.00 0.00 0.00 45 1013.4
20260906183742 99 352 2.0 4.0 0.00 0.00 0.00 45 1013.3
20260906183238 99 256 4.0 7.0 0.00 0.00 0.00 45 1013.4
20260906182738 98 350 1.0 4.0 0.00 0.00 0.00 46 1013.5
20260906182234 98 150 5.0 7.0 0.00 0.00 0.00 44 1013.8
20260906181729 99 316 2.0 4.0 0.00 0.00 0.00 45 1013.9
20260906181226 99 5 2.0 4.0 0.00 0.00 0.00 46 1013.9
20260906180725 99 352 0.0 2.0 0.00 0.00 0.00 46 1013.8
20260906180220 98 10 2.0 6.0 0.00 0.00 0.00 46 1013.9
20260906175718 97 91 2.0 3.0 0.00 0.00 0.00 48 1014.0
20260906175214 97 202 1.0 2.0 0.00 0.00 0.00 48 1014.2
20260906174712 99 269 4.0 6.0 0.00 0.00 0.00 46 1014.3
20260906174207 98 52 3.0 8.0 0.00 0.00 0.00 46 1014.2
20260906173702 99 174 2.0 6.0 0.00 0.00 0.00 48 1014.4
20260906173157 98 6 1.0 6.0 0.00 0.00 0.00 48 1014.3
20260906172657 97 245 3.0 4.0 0.00 0.00 0.00 48 1014.5
20260906172152 98 111 4.0 8.0 0.00 0.00 0.00 48 1014.6
20260906171652 97 57 2.0 6.0 0.00 0.00 0.00 48 1014.6
20260906171148 98 135 4.0 10.0 0.00 0.00 0.00 48 1014.7
20260906170644 98 63 2.0 4.0 0.00 0.00 0.00 49 1014.7
20260906170143 96 144 2.0 3.0 0.00 0.00 0.00 50 1014.5
20260906165639 96 71 2.0 7.0 0.00 0.00 0.00 50 1014.5
20260906165135 97 37 2.0 3.0 0.00 0.00 0.00 48 1014.7
20260906164633 97 45 1.0 3.0 0.00 0.00 0.00 49 1014.7
20260906164129 98 52 1.0 7.0 0.00 0.00 0.00 48 1014.7
20260906163625 97 82 2.0 3.0 0.00 0.00 0.00 51 1014.7
20260906163121 96 251 0.0 4.0 0.00 0.00 0.00 51 1014.7
20260906162618 96 234 1.0 3.0 0.00 0.00 0.00 50 1014.8
20260906162113 95 60 3.0 6.0 0.00 0.00 0.00 51 1014.7
20260906161613 98 257 2.0 2.0 0.00 0.00 0.00 48 1014.7
20260906161112 97 277 1.0 1.0 0.00 0.00 0.00 51 1014.5
20260906160610 95 28 1.0 3.0 0.00 0.00 0.00 51 1014.7
20260906160109 95 73 1.0 2.0 0.00 0.00 0.00 52 1014.4
20260906155607 95 55 2.0 3.0 0.00 0.00 0.00 53 1014.6
20260906155103 95 202 1.0 2.0 0.00 0.00 0.00 52 1014.6
20260906154559 95 52 1.0 2.0 0.00 0.00 0.00 52 1014.5
20260906154057 95 93 2.0 2.0 0.00 0.00 0.00 54 1014.5
20260906153556 94 117 0.0 3.0 0.00 0.00 0.00 54 1014.5
20260906153052 92 347 1.0 2.0 0.00 0.00 0.00 55 1014.4
20260906152551 94 33 1.0 2.0 0.00 0.00 0.00 54 1014.5
20260906152051 92 126 1.0 2.0 0.00 0.00 0.00 57 1014.5
20260906151546 93 49 0.0 2.0 0.00 0.00 0.00 55 1014.5
20260906151042 92 126 1.0 2.0 0.00 0.00 0.00 56 1014.7
20260906150537 93 344 1.0 3.0 0.00 0.00 0.00 55 1014.6
20260906150032 92 108 0.0 2.0 0.00 0.00 0.00 57 1014.6
20260906145531 93 5 0.0 1.0 0.00 0.00 0.00 58 1014.6
20260906145026 93 17 0.0 0.0 0.00 0.00 0.00 59 1014.4
20260906144520 91 303 1.0 1.0 0.00 0.00 0.00 59 1014.4
20260906144016 92 156 0.0 1.0 0.00 0.00 0.00 59 1014.4
20260906143511 91 268 0.0 1.0 0.00 0.00 0.00 62 1014.4
20260906143008 90 334 0.0 0.0 0.00 0.00 0.00 65 1014.5
20260906142501 89 281 0.0 1.0 0.00 0.00 0.00 67 1014.5
20260906141956 87 353 0.0 1.0 0.00 0.00 0.00 69 1014.7
20260906141455 87 12 1.0 2.0 0.00 0.00 0.00 70 1014.5
20260906140951 87 105 0.0 1.0 0.00 0.00 0.00 72 1014.6
20260906140450 86 337 0.0 1.0 0.00 0.00 0.00 74 1014.5
20260906135949 86 46 1.0 1.0 0.00 0.00 0.00 72 1014.7
20260906135447 86 65 0.0 0.0 0.00 0.00 0.00 72 1014.6
20260906134943 86 344 0.0 0.0 0.00 0.00 0.00 73 1014.5
20260906134439 85 344 0.0 0.0 0.00 0.00 0.00 76 1014.6
20260906133939 83 344 0.0 1.0 0.00 0.00 0.00 78 1014.7
20260906133435 83 344 0.0 0.0 0.00 0.00 0.00 79 1014.6
20260906132930 82 344 0.0 1.0 0.00 0.00 0.00 81 1014.5
20260906132425 81 344 0.0 0.0 0.00 0.00 0.00 82 1014.6
20260906131921 81 344 0.0 1.0 0.00 0.00 0.00 84 1014.6
20260906131416 81 344 0.0 1.0 0.00 0.00 0.00 82 1014.5
20260906130912 80 344 0.0 0.0 0.00 0.00 0.00 84 1014.5
20260906130411 79 344 0.0 0.0 0.00 0.00 0.00 87 1014.5
20260906125911 79 344 0.0 1.0 0.00 0.00 0.00 87 1014.4
20260906125408 78 228 0.0 0.0 0.00 0.00 0.00 88 1014.5
20260906124902 78 228 0.0 0.0 0.00 0.00 0.00 89 1014.5
20260906124359 77 228 0.0 0.0 0.00 0.00 0.00 90 1014.4
20260906123858 76 228 0.0 0.0 0.00 0.00 0.00 91 1014.3
20260906123352 76 228 0.0 0.0 0.00 0.00 0.00 92 1014.3
20260906122852 76 228 0.0 0.0 0.00 0.00 0.00 93 1014.3
20260906122347 75 228 0.0 0.0 0.00 0.00 0.00 93 1014.1
20260906121844 75 228 0.0 0.0 0.00 0.00 0.00 94 1014.2
20260906121339 75 228 0.0 0.0 0.00 0.00 0.00 94 1014.1
20260906120836 75 228 0.0 0.0 0.00 0.00 0.00 93 1014.0
20260906120331 75 228 0.0 0.0 0.00 0.00 0.00 93 1014.0
20260906115827 75 228 0.0 0.0 0.00 0.00 0.00 93 1014.0
20260906115322 76 228 0.0 0.0 0.00 0.00 0.00 93 1014.0
20260906114821 76 228 0.0 0.0 0.00 0.00 0.00 92 1013.9
20260906114317 76 228 0.0 0.0 0.00 0.00 0.00 92 1013.9
20260906113812 76 228 0.0 0.0 0.00 0.00 0.00 92 1013.8
20260906113311 76 228 0.0 0.0 0.00 0.00 0.00 91 1014.0
20260906112807 76 228 0.0 0.0 0.00 0.00 0.00 91 1013.8
20260906112306 76 228 0.0 1.0 0.00 0.00 0.00 91 1013.9
20260906111802 76 78 0.0 1.0 0.00 0.00 0.00 90 1013.9
20260906111301 77 61 0.0 0.0 0.00 0.00 0.00 89 1013.7
20260906110757 77 143 0.0 0.0 0.00 0.00 0.00 89 1013.6
20260906110253 77 215 0.0 1.0 0.00 0.00 0.00 89 1013.7
20260906105752 77 220 0.0 0.0 0.00 0.00 0.00 89 1013.4
20260906105248 77 220 0.0 1.0 0.00 0.00 0.00 88 1013.2
20260906104743 77 206 0.0 0.0 0.00 0.00 0.00 88 1013.4
20260906104241 77 206 0.0 0.0 0.00 0.00 0.00 88 1013.5
20260906103739 78 204 0.0 1.0 0.00 0.00 0.00 87 1013.3
20260906103234 78 240 0.0 1.0 0.00 0.00 0.00 87 1013.0
20260906102729 78 175 0.0 1.0 0.00 0.00 0.00 87 1013.0
20260906102223 78 243 0.0 2.0 0.00 0.00 0.00 86 1013.3
20260906101718 78 201 0.0 1.0 0.00 0.00 0.00 87 1013.3
20260906101213 78 200 0.0 1.0 0.00 0.00 0.00 86 1013.2
20260906100708 78 214 0.0 0.0 0.00 0.00 0.00 86 1013.3
20260906100203 78 209 0.0 1.0 0.00 0.00 0.00 86 1013.1
20260906095703 78 216 0.0 0.0 0.00 0.00 0.00 86 1013.1
20260906095159 78 120 0.0 0.0 0.00 0.00 0.00 86 1013.2
20260906094657 78 215 0.0 0.0 0.00 0.00 0.00 85 1013.1
20260906094153 78 159 0.0 1.0 0.00 0.00 0.00 85 1012.9
20260906093650 78 219 0.0 1.0 0.00 0.00 0.00 85 1013.0
20260906093149 78 233 0.0 1.0 0.00 0.00 0.00 84 1013.2
20260906092645 78 211 0.0 1.0 0.00 0.00 0.00 84 1012.9
20260906092144 79 234 0.0 0.0 0.00 0.00 0.00 84 1012.8
20260906091641 79 163 0.0 1.0 0.00 0.00 0.00 84 1013.1
20260906091137 79 0 0.0 2.0 0.00 0.00 0.00 83 1013.0
20260906090633 79 8 0.0 0.0 0.00 0.00 0.00 83 1012.9
20260906090132 79 218 0.0 1.0 0.00 0.00 0.00 83 1012.9
20260906085632 79 221 2.0 2.0 0.00 0.00 0.00 83 1013.0
20260906085131 79 146 0.0 1.0 0.00 0.00 0.00 82 1013.0
20260906084626 79 190 0.0 2.0 0.00 0.00 0.00 82 1012.7
20260906084125 79 347 0.0 0.0 0.00 0.00 0.00 82 1012.5
20260906083620 80 201 1.0 1.0 0.00 0.00 0.00 81 1012.7
20260906083115 80 199 0.0 1.0 0.00 0.00 0.00 81 1012.6
20260906082611 80 3 0.0 2.0 0.00 0.00 0.00 80 1012.6
20260906082106 80 355 0.0 3.0 0.00 0.00 0.00 80 1012.6
20260906081602 80 214 0.0 1.0 0.00 0.00 0.00 80 1012.7
20260906081057 80 216 1.0 3.0 0.00 0.00 0.00 79 1012.7
20260906080553 80 304 0.0 1.0 0.00 0.00 0.00 79 1012.5
20260906080049 80 8 0.0 0.0 0.00 0.00 0.00 79 1012.5
20260906075549 80 312 0.0 1.0 0.00 0.00 0.00 78 1012.4
20260906075044 80 195 1.0 1.0 0.00 0.00 0.00 78 1012.4
20260906074539 80 174 2.0 2.0 0.00 0.00 0.00 78 1012.6
20260906074037 80 301 0.0 1.0 0.00 0.00 0.00 78 1012.6
20260906073532 81 24 0.0 0.0 0.00 0.00 0.00 78 1012.6
20260906073029 81 219 0.0 2.0 0.00 0.00 0.00 77 1012.6
20260906072523 81 188 0.0 2.0 0.00 0.00 0.00 77 1012.6
20260906072020 81 246 0.0 3.0 0.00 0.00 0.00 77 1012.6
20260906071515 81 293 1.0 2.0 0.00 0.00 0.00 77 1012.7
20260906071010 81 302 2.0 2.0 0.00 0.00 0.00 76 1012.9
20260906070507 81 298 2.0 3.0 0.00 0.00 0.00 76 1012.8
20260906070002 82 264 2.0 3.0 0.00 0.00 0.00 76 1012.7
20260906065501 82 246 0.0 1.0 0.00 0.00 0.00 76 1012.9
20260906064957 82 148 1.0 3.0 0.00 0.00 0.00 75 1012.8
20260906064453 82 356 1.0 2.0 0.00 0.00 0.00 75 1013.0
20260906063948 82 86 0.0 2.0 0.00 0.00 0.00 75 1013.0
20260906063443 82 72 0.0 4.0 0.00 0.00 0.00 75 1012.9
20260906062943 82 62 0.0 3.0 0.00 0.00 0.00 75 1013.2
20260906062438 82 198 0.0 1.0 0.00 0.00 0.00 75 1012.9
20260906061933 82 245 1.0 1.0 0.00 0.00 0.00 75 1012.6
20260906061429 82 145 1.0 1.0 0.00 0.00 0.00 75 1012.6
20260906060923 82 223 0.0 2.0 0.00 0.00 0.00 75 1012.9
20260906060421 82 61 0.0 1.0 0.00 0.00 0.00 75 1012.9
20260906055917 82 203 1.0 2.0 0.00 0.00 0.00 74 1012.9
20260906055413 83 252 0.0 3.0 0.00 0.00 0.00 74 1013.0
20260906054908 83 332 1.0 3.0 0.00 0.00 0.00 74 1012.8
20260906054402 83 262 1.0 2.0 0.00 0.00 0.00 73 1012.9
20260906053858 83 246 0.0 2.0 0.00 0.00 0.00 73 1013.1
20260906053354 83 272 0.0 1.0 0.00 0.00 0.00 73 1012.8
20260906052850 83 271 0.0 2.0 0.00 0.00 0.00 73 1012.9
20260906052346 83 247 1.0 2.0 0.00 0.00 0.00 73 1013.0
20260906051843 83 224 1.0 2.0 0.00 0.00 0.00 72 1013.0
20260906051342 83 285 0.0 1.0 0.00 0.00 0.00 72 1012.9
20260906050838 83 309 0.0 0.0 0.00 0.00 0.00 72 1013.0
20260906050333 83 130 1.0 3.0 0.00 0.00 0.00 72 1012.9
20260906045831 83 240 1.0 3.0 0.00 0.00 0.00 71 1013.0
20260906045326 84 264 0.0 2.0 0.00 0.00 0.00 71 1012.9
20260906044823 84 34 1.0 4.0 0.00 0.00 0.00 71 1013.0
20260906044323 84 140 2.0 3.0 0.00 0.00 0.00 71 1013.2
20260906043819 84 174 1.0 3.0 0.00 0.00 0.00 70 1013.2
20260906043315 84 317 1.0 3.0 0.00 0.00 0.00 70 1013.2
20260906042814 84 178 1.0 2.0 0.00 0.00 0.00 69 1012.9
20260906042313 84 196 2.0 2.0 0.00 0.00 0.00 69 1013.1
20260906041809 85 35 1.0 2.0 0.00 0.00 0.00 69 1012.9
20260906041304 85 63 2.0 3.0 0.00 0.00 0.00 68 1013.0
20260906040759 85 269 1.0 3.0 0.00 0.00 0.00 67 1013.0
20260906040254 85 216 2.0 4.0 0.00 0.00 0.00 67 1012.9
20260906035749 85 341 0.0 3.0 0.00 0.00 0.00 66 1012.9
20260906035246 85 240 1.0 2.0 0.00 0.00 0.00 66 1012.9
20260906034746 85 27 2.0 3.0 0.00 0.00 0.00 65 1012.9
20260906034240 86 348 1.0 3.0 0.00 0.00 0.00 65 1012.9
20260906033736 86 91 1.0 2.0 0.00 0.00 0.00 65 1012.7
20260906033236 86 327 0.0 3.0 0.00 0.00 0.00 64 1012.9
20260906032733 86 250 2.0 3.0 0.00 0.00 0.00 64 1012.9
20260906032232 86 198 2.0 6.0 0.00 0.00 0.00 63 1012.8
20260906031727 86 200 2.0 4.0 0.00 0.00 0.00 63 1012.9
20260906031224 87 118 0.0 2.0 0.00 0.00 0.00 62 1013.1
20260906030723 87 67 1.0 3.0 0.00 0.00 0.00 62 1013.1
20260906030218 87 321 2.0 2.0 0.00 0.00 0.00 62 1013.1
20260906025717 87 0 0.0 3.0 0.00 0.00 0.00 62 1013.1
20260906025212 87 258 3.0 6.0 0.00 0.00 0.00 61 1013.0
20260906024711 87 193 4.0 4.0 0.00 0.00 0.00 61 1012.9
20260906024210 87 178 0.0 3.0 0.00 0.00 0.00 61 1012.8
20260906023706 87 88 0.0 4.0 0.00 0.00 0.00 61 1012.8
20260906023201 88 255 2.0 7.0 0.00 0.00 0.00 61 1012.5
20260906022656 88 199 1.0 3.0 0.00 0.00 0.00 61 1012.5
20260906022152 88 238 2.0 6.0 0.00 0.00 0.00 61 1012.4
20260906021648 88 234 1.0 2.0 0.00 0.00 0.00 60 1012.4
20260906021146 88 342 1.0 2.0 0.00 0.00 0.00 60 1012.2
20260906020641 88 283 1.0 6.0 0.00 0.00 0.00 60 1012.1
20260906020136 88 184 1.0 4.0 0.00 0.00 0.00 59 1011.9
20260906015635 89 186 3.0 6.0 0.00 0.00 0.00 59 1012.0
20260906015135 89 80 4.0 8.0 0.00 0.00 0.00 58 1012.1
20260906014634 89 73 1.0 6.0 0.00 0.00 0.00 58 1012.1
20260906014131 89 215 3.0 6.0 0.00 0.00 0.00 58 1012.0
20260906013626 90 4 2.0 6.0 0.00 0.00 0.00 58 1011.7
20260906013122 90 220 2.0 6.0 0.00 0.00 0.00 58 1011.7
20260906012616 91 181 4.0 8.0 0.00 0.00 0.00 57 1011.9
20260906012116 91 92 2.0 6.0 0.00 0.00 0.00 55 1011.7
20260906011613 93 43 4.0 10.0 0.00 0.00 0.00 52 1011.5
20260906011112 93 133 1.0 2.0 0.00 0.00 0.00 49 1011.4
20260906010608 93 179 0.0 1.0 0.00 0.00 0.00 49 1011.2
20260906010104 93 202 0.0 2.0 0.00 0.00 0.00 48 1011.2
20260906005603 94 196 1.0 2.0 0.00 0.00 0.00 48 1011.1
20260906005103 94 271 0.0 1.0 0.00 0.00 0.00 48 1011.1
20260906004602 94 99 0.0 3.0 0.00 0.00 0.00 47 1011.1
20260906004057 94 213 0.0 2.0 0.00 0.00 0.00 47 1010.9
20260906003552 95 55 0.0 1.0 0.00 0.00 0.00 47 1011.2
20260906003048 95 190 0.0 2.0 0.00 0.00 0.00 47 1011.0
20260906002543 95 128 1.0 2.0 0.00 0.00 0.00 47 1011.1
20260906002037 95 226 1.0 1.0 0.00 0.00 0.00 46 1011.2
20260906001527 96 240 0.0 1.0 0.00 0.00 0.00 46 1011.0
20260906001027 96 8 0.0 3.0 0.00 0.00 0.00 45 1010.8
20260906000523 96 113 1.0 2.0 0.00 0.00 0.00 45 1010.9
20260906000018 96 100 1.0 2.0 0.00 0.00 0.00 45 1011.1
20260905235517 97 357 0.0 2.0 0.00 0.00 0.00 45 1010.8
20260905235013 98 62 1.0 2.0 0.00 0.00 0.00 44 1010.8
20260905234509 97 135 2.0 3.0 0.00 0.00 0.00 44 1010.9
20260905234009 97 113 0.0 1.0 0.00 0.00 0.00 44 1010.8
20260905233503 98 99 2.0 3.0 0.00 0.00 0.00 43 1010.7
20260905233003 99 177 3.0 6.0 0.00 0.00 0.00 42 1010.9
20260905232458 98 143 1.0 2.0 0.00 0.00 0.00 43 1010.8
20260905231954 99 70 0.0 2.0 0.00 0.00 0.00 42 1010.9
20260905231450 100 232 0.0 0.0 0.00 0.00 0.00 41 1010.9
20260905230946 99 282 0.0 1.0 0.00 0.00 0.00 42 1010.7
20260905230444 98 111 1.0 1.0 0.00 0.00 0.00 43 1010.7
20260905225943 97 164 1.0 2.0 0.00 0.00 0.00 44 1010.8
20260905225438 97 172 2.0 2.0 0.00 0.00 0.00 44 1010.8
20260905224933 99 142 1.0 1.0 0.00 0.00 0.00 43 1010.9
20260905224429 99 151 0.0 2.0 0.00 0.00 0.00 42 1010.8
20260905223928 100 26 1.0 1.0 0.00 0.00 0.00 41 1010.7
20260905223427 100 334 1.0 2.0 0.00 0.00 0.00 42 1010.9
20260905222926 101 51 2.0 2.0 0.00 0.00 0.00 41 1010.8